Погода в Керчи

Погода в Керчи : погода сейчас, прогноз погоды и архив. Всё, что Вы хотите узнать о погоде в Керчи!

Поиск расширенной информации на нашем сайте:

Другие новости

Новости СМИ2

Главная страница сайта

Новости сайта

02.10.2013

Напоминаем, что на нашем новом сайте вы можете получить высокодетализированные прогнозы погоды по пунктам России, СНГ и мира (включающие важные для авиации метеовеличины, такие как направление и скорость ветра, видимость, явления погоды, количество и форма облачности, нижняя и верхняя граница облачности), а также ознакомиться с разнообразными материалами по авиационной метеорологии и подборкой полезных ссылок на эту тему.

Сайт Метеоцентр.Азия посвящён разработке технологий оптимизации авиаметеорологического обслуживания, включая проектирование и перспективное создание нескольких автоматизированных авиаметеорологических систем:
- система выпуска высокодетальных прогностических карт явлений погоды для нижнего воздушного пространства по России и ближнему зарубежью;
- система верификации прогнозов TAF (выпускаемых синоптиками официальных АМСГ РФ и ближнего зарубежья) и AUTOTAF (выпускаемых сайтом Метеоцентр.Азия) - выявление ошибок, онлайн-сопоставление с фактической погодой METAR, автоматическое внесение коррективов в прогнозы при резком отклонении фактической погоды от прогноза, подсчёт оправдываемости прогнозов по элементам и в целом;
- система обработки, анализа и отображения авиаметеорологической информации для применения провайдерами метеорологической информации.

Рекомендуем: купоны gearbest 2017

Погода в Керчи - сегодня

Время (UTC), дата Ветер
(°,м/с) 
Видим.   Явления Облачность Т
(°С)
Тd
(°С)
f(%) Тe
(°С)
Pmin
(гПа)
dP
(гПа)
Po
(мм)
O2
(г/м3)
Тmin Tmax R s Состояние
почвы
09 25.06.17 280 (З) 10 км    5/4 600 м кучево-дожд., средняя 
[Cb calv|Ac trans]
+28.2 +14 42 +35  1014.5  0.4  757  274           
12 25.06.17 170 (Ю) 10 км    8/5 600 м кучево-дожд., средняя 
[Cb calv|Ac trans]
+25.5 +16.6 58 +37  1014.9  0.3  757  275           
15 25.06.17 120 (ЮВ) 10 км    4/3 600 м средняя 
[Cu hum|Ac trans]
+25.3 +16.6 59 +37  1015    757  276           
18 25.06.17 240 (ЮЗ) 10 км    ясно 
+22.9 +17.6 72 +36  1015.3  0.3  757  278    +30.3       
21 25.06.17 тихо ()   10 км    ясно 
+19.6 +16.6 83 +31  1016.1  0.7  758  281           
00 26.06.17 тихо ()   10 км    ясно 
+18.5 +16 85 +29  1015.6  -0.5  757  282           
03 26.06.17 тихо ()   0200 м  туман  ?/?  
+16.9 +16.8 99 +29  1015.4  -0.2  757  284  +16.3         
06 26.06.17 тихо ()   10 км  в посл. час туман  ясно 
+23.1 +19 78 +39  1015.6  0.3  757  277  +16.3         
09 26.06.17 130 (ЮВ) 10 км    3/3 1000 м 
[Cu hum]
+28.1 +13.8 41 +35  1015.4  -0.1  757  274           
12 26.06.17 180 (Ю) 10 км    3/3 1000 м 
[Cu hum]
+28.7 +17.3 50 +41  1014.7  -0.7  757  272           
15 26.06.17 150 (ЮВ) 10 км    ясно 
+28.4 +13.7 41 +35  1013.3  -1.4  756  273           
18 26.06.17 тихо ()   10 км    ясно 
+23.9 +17.5 67 +37  1012.7  -0.7  755  276    +29       
21 26.06.17 тихо ()   10 км    ясно 
+19.3 +15.4 78 +28  1012.4  -0.4  755  281           
00 27.06.17 310 (СЗ) 10 км    ясно 
+18.9 +16.3 85 +31  1012.5  0.1  755  281           
03 27.06.17 320 (СЗ) 10 км    ясно 
+20.6 +18.6 88 +36  1011.9  -0.5  755  278  +18.5         
06 27.06.17 030 (СВ) 10 км    8/0 верхняя 
[Ci fib]
+27.2 +18.6 59 +43  1011.5  -0.3  754  272  +18.5         
09 27.06.17 010 (С) 10 км    8/0 верхняя 
[Ci fib]
+28.6 +17.6 51 +42  1011.5  754  271           
12 27.06.17 360 (С) 10 км    4/0 верхняя 
[Ci fib]
+28.5 +17.8 52 +42  1011.2  -0.3  754  271           
15 27.06.17 010 (С) 10 км    3/0 верхняя 
[Ci fib]
+28.2 +16.5 49 +39  1011.2  754  272           
18 27.06.17 350 (С) 10 км    8/0 средняя, верхняя 
[Ac trans|Ci fib]
+23.4 +18.7 75 +39  1010.9  -0.4  754  275    +30.3       
21 27.06.17 тихо ()   10 км    3/0 верхняя 
[Ci fib]
+21.6 +17.9 79 +36  1011.2  0.3  754  278           
00 28.06.17 300 (СЗ) 10 км    3/0 верхняя 
[Ci fib]
+21.4 +19.7 90 +39  1011.1  -0.1  754  277           
03 28.06.17 240 (ЮЗ) 10 км    4/4 600 м 
[Cu med, cong]
+20 +18.4 91 +35  1011.2  0.1  754  279  +18.7         
06 28.06.17 120 (ЮВ) 10 км    6/3 600 м верхняя 
[Cu hum|Ci fib]
+27.4 +18.3 58 +42  1011.2  0.1  754  272  +18.7         
09 28.06.17 130 (ЮВ) 10 км    8/3 1000 м верхняя 
[Cu hum|Ci fib]
+29 +18.4 53 +44  1011.3  0.1  754  271           
Время (UTC), дата Ветер
(°,м/с) 
Видим.   Явления Облачность Т
(°С)
Тd
(°С)
f(%) Тe
(°С)
Pmin
(гПа)
dP
(гПа)
Po
(мм)
O2
(г/м3)
Тmin Tmax R s Состояние
почвы

Для получения пояснительной информации подведите курсор к названию столбца.

ПОГОДА в Керчи - архив

Всё, что Вы хотите узнать о погоде в Керчи - удобно и подробно!

Выберите нужную дату (начиная с 1 января 2015* года) и нажмите кнопку "Найти".
Будут отображены архивные сводки погоды по пункту Керчь, начиная с указанной даты.


Отображать данные в формате CSV (для использования в таблицах Excel)


Внимание! Наш архив погоды предназначен исключительно для личного некоммерческого использования в познавательных целях. Если Вам необходимы официальные справки о состоянии погоды (для производственных, юридических, коммерческих и т.п. целей), обращайтесь в органы Росгидромета.

*Примечание: данная дата относится к архиву по метеостанциям СССР (Россия, СНГ, Балтия).
Архив по метеостанциям Зарубежной Европы и Азии (кроме Китая) хранится 10 дней, по другим регионам земного шара (Китай, Африка, Америка, Австралия, Океания) - 1 день.

Керчь - район местоположения метеостанции


Название, широта, долгота, высота метеостанции:
Керчь 45.4°ш. 36.4°д. 49 м над ур. моря [Российская Федерация]

Дополнительная информация

В oтличие oт бoльшинства пoгoдных сайтoв мы публикуем пoдрoбную метеoинфoрмацию в детальнoм прoфессиoнальнoм фoрмате.

Характеристики температуры и влажнoсти вoздуха измеряются на высoте 2 м в тени вдали oт зданий и деревьев.
Скoрoсть ветра измеряется на высoте 10 м (на урoвне рoста челoвека скoрoсть ветра ниже в 1.5-2 раза). Если метеoстанция нахoдится в гoрoде или в лесу, тo скoрoсть ветра занижена на 2-4 м/с пo сравнению с oткрытым местoм. Скoрoсть ветра над акватoриями крупных рек и oзёр, а также на вершинах хoлмoв на 2-5 м/с выше, чем в oбычных услoвиях.
Атмoсфернoе давление в разных тoчках местнoсти мoжет значительнo oтличаться oт давления на метеoстанции, в зависимoсти oт услoвий рельефа (при пoдъёме на 10 м давление пoнижается примернo на 1 мм рт.ст.).